| time (UTC) | temp F | wind direction | speed knots | gust knots | rain 1hr in | rain 24hr in | rain mn in | humidity % | barometer mb |
| 20260504160116 | 56 | 158 | 1.7 | 1.7 | 0.00 | 0.00 | 0.00 | 62 | 1015.1 |
| 20260504151116 | 55 | 135 | 5.2 | 7.8 | 0.00 | 0.00 | 0.00 | 63 | 1014.8 |
| 20260504150116 | 55 | 135 | 3.5 | 4.3 | 0.00 | 0.00 | 0.00 | 63 | 1014.6 |
| 20260504141116 | 54 | 135 | 2.6 | 4.3 | 0.00 | 0.00 | 0.00 | 64 | 1014.1 |
| 20260504140115 | 54 | 158 | 0.9 | 2.6 | 0.00 | 0.00 | 0.00 | 64 | 1014.0 |
| 20260504130116 | 55 | 135 | 3.5 | 7.0 | 0.00 | 0.00 | 0.00 | 63 | 1013.1 |
| 20260504120116 | 58 | 158 | 3.5 | 6.1 | 0.00 | 0.00 | 0.00 | 59 | 1012.3 |
| 20260504110136 | 61 | 135 | 2.6 | 4.3 | 0.00 | 0.00 | 0.00 | 54 | 1011.9 |
| 20260504100137 | 63 | 158 | 3.5 | 6.1 | 0.00 | 0.00 | 0.00 | 48 | 1011.3 |
| 20260504081138 | 66 | 158 | 0.9 | 1.7 | 0.00 | 0.00 | 0.00 | 44 | 1010.6 |
| 20260504080137 | 66 | 158 | 1.7 | 3.5 | 0.00 | 0.00 | 0.00 | 44 | 1010.6 |
| 20260504070117 | 68 | 180 | 1.7 | 1.7 | 0.00 | 0.00 | 0.00 | 43 | 1010.3 |
| 20260504060116 | 73 | 293 | 1.7 | 2.6 | 0.00 | 0.00 | 0.00 | 32 | 1010.0 |
| 20260504050116 | 75 | 293 | 3.5 | 6.1 | 0.00 | 0.00 | 0.00 | 31 | 1009.5 |
| 20260504045115 | 76 | 293 | 3.5 | 5.2 | 0.00 | 0.00 | 0.00 | 31 | 1009.6 |
| 20260504044115 | 76 | 293 | 3.5 | 6.1 | 0.00 | 0.00 | 0.00 | 31 | 1009.4 |
| 20260504043115 | 77 | 315 | 2.6 | 3.5 | 0.00 | 0.00 | 0.00 | 31 | 1009.3 |
| 20260504042116 | 77 | 293 | 1.7 | 3.5 | 0.00 | 0.00 | 0.00 | 31 | 1009.4 |
| 20260504041136 | 78 | 315 | 2.6 | 4.3 | 0.00 | 0.00 | 0.00 | 30 | 1009.2 |
| 20260504040116 | 78 | 338 | 2.6 | 3.5 | 0.00 | 0.00 | 0.00 | 29 | 1009.2 |
| 20260504035158 | 79 | 315 | 2.6 | 3.5 | 0.00 | 0.00 | 0.00 | 29 | 1009.1 |
| 20260504034116 | 79 | 315 | 2.6 | 4.3 | 0.00 | 0.00 | 0.00 | 28 | 1009.1 |
| 20260504033118 | 80 | 315 | 2.6 | 3.5 | 0.00 | 0.00 | 0.00 | 28 | 1009.0 |
| 20260504032117 | 80 | 315 | 1.7 | 4.3 | 0.00 | 0.00 | 0.00 | 27 | 1008.9 |
| 20260504031117 | 81 | 315 | 4.3 | 7.0 | 0.00 | 0.00 | 0.00 | 26 | 1008.8 |
| 20260504030117 | 81 | 315 | 5.2 | 8.7 | 0.00 | 0.00 | 0.00 | 25 | 1008.8 |
| 20260504025118 | 82 | 315 | 3.5 | 5.2 | 0.00 | 0.00 | 0.00 | 24 | 1008.8 |
| 20260504024158 | 82 | 315 | 3.5 | 5.2 | 0.00 | 0.00 | 0.00 | 23 | 1008.6 |
| 20260504023117 | 83 | 315 | 3.5 | 7.0 | 0.00 | 0.00 | 0.00 | 23 | 1008.7 |
| 20260504022117 | 83 | 338 | 3.5 | 7.0 | 0.00 | 0.00 | 0.00 | 22 | 1008.8 |
| 20260504021117 | 83 | 315 | 4.3 | 7.8 | 0.00 | 0.00 | 0.00 | 22 | 1008.7 |
| 20260504020117 | 84 | 315 | 4.3 | 7.0 | 0.00 | 0.00 | 0.00 | 21 | 1008.8 |
| 20260504015117 | 85 | 315 | 5.2 | 7.8 | 0.00 | 0.00 | 0.00 | 20 | 1008.8 |
| 20260504014118 | 85 | 0 | 4.3 | 7.8 | 0.00 | 0.00 | 0.00 | 20 | 1008.8 |
| 20260504013137 | 87 | 315 | 4.3 | 7.0 | 0.00 | 0.00 | 0.00 | 18 | 1009.0 |
| 20260504012117 | 88 | 0 | 4.3 | 8.7 | 0.00 | 0.00 | 0.00 | 17 | 1009.2 |
| 20260504011117 | 89 | 338 | 5.2 | 8.7 | 0.00 | 0.00 | 0.00 | 17 | 1009.4 |
| 20260504010137 | 89 | 293 | 6.1 | 9.6 | 0.00 | 0.00 | 0.00 | 16 | 1009.6 |
| 20260504005117 | 90 | 315 | 5.2 | 8.7 | 0.00 | 0.00 | 0.00 | 16 | 1009.7 |
| 20260504004117 | 90 | 338 | 3.5 | 5.2 | 0.00 | 0.00 | 0.00 | 18 | 1009.7 |
| 20260504003117 | 91 | 338 | 4.3 | 7.0 | 0.00 | 0.00 | 0.00 | 16 | 1009.7 |
| 20260504002117 | 91 | 315 | 4.3 | 8.7 | 0.00 | 0.00 | 0.00 | 15 | 1009.8 |
| 20260504001117 | 91 | 315 | 4.3 | 7.8 | 0.00 | 0.00 | 0.00 | 14 | 1009.9 |
| 20260504000117 | 91 | 315 | 5.2 | 9.6 | 0.00 | 0.00 | 0.00 | 14 | 1010.0 |
| 20260503235117 | 91 | 0 | 1.7 | 4.3 | 0.00 | 0.00 | 0.00 | 16 | 1010.0 |
| 20260503234137 | 91 | 315 | 3.5 | 6.1 | 0.00 | 0.00 | 0.00 | 14 | 1010.1 |
| 20260503233138 | 91 | 338 | 7.0 | 8.7 | 0.00 | 0.00 | 0.00 | 14 | 1010.3 |
| 20260503232117 | 92 | 338 | 3.5 | 6.1 | 0.00 | 0.00 | 0.00 | 13 | 1010.4 |
| 20260503231158 | 92 | 0 | 3.5 | 5.2 | 0.00 | 0.00 | 0.00 | 15 | 1010.5 |
| 20260503230117 | 92 | 315 | 4.3 | 6.1 | 0.00 | 0.00 | 0.00 | 14 | 1010.6 |
| 20260503225116 | 92 | 270 | 3.5 | 5.2 | 0.00 | 0.00 | 0.00 | 14 | 1010.8 |
| 20260503224117 | 92 | 23 | 1.7 | 3.5 | 0.00 | 0.00 | 0.00 | 16 | 1010.9 |
| 20260503223116 | 92 | 0 | 2.6 | 3.5 | 0.00 | 0.00 | 0.00 | 15 | 1011.0 |
| 20260503222116 | 92 | 338 | 1.7 | 2.6 | 0.00 | 0.00 | 0.00 | 16 | 1011.2 |
| 20260503221116 | 92 | 0 | 0.9 | 1.7 | 0.00 | 0.00 | 0.00 | 16 | 1011.3 |
| 20260503220116 | 91 | 315 | 3.5 | 7.0 | 0.00 | 0.00 | 0.00 | 16 | 1011.5 |
| 20260503215117 | 91 | 293 | 0.9 | 2.6 | 0.00 | 0.00 | 0.00 | 15 | 1011.6 |
| 20260503214116 | 91 | 338 | 2.6 | 3.5 | 0.00 | 0.00 | 0.00 | 18 | 1011.6 |
| 20260503213117 | 90 | 225 | 0.9 | 2.6 | 0.00 | 0.00 | 0.00 | 19 | 1011.8 |
| 20260503212116 | 91 | 315 | 1.7 | 2.6 | 0.00 | 0.00 | 0.00 | 21 | 1011.8 |
| 20260503211137 | 90 | 315 | 2.6 | 4.3 | 0.00 | 0.00 | 0.00 | 22 | 1011.9 |
| 20260503210117 | 89 | 270 | 2.6 | 5.2 | 0.00 | 0.00 | 0.00 | 23 | 1012.0 |
| 20260503205117 | 89 | 338 | 3.5 | 5.2 | 0.00 | 0.00 | 0.00 | 24 | 1012.2 |
| 20260503204116 | 88 | 338 | 3.5 | 5.2 | 0.00 | 0.00 | 0.00 | 24 | 1012.4 |
| 20260503203116 | 88 | 293 | 3.5 | 6.1 | 0.00 | 0.00 | 0.00 | 25 | 1012.3 |
| 20260503202116 | 87 | 270 | 4.3 | 7.0 | 0.00 | 0.00 | 0.00 | 27 | 1012.5 |
| 20260503201116 | 87 | 293 | 4.3 | 7.0 | 0.00 | 0.00 | 0.00 | 28 | 1012.7 |
| 20260503200117 | 86 | 315 | 4.3 | 7.0 | 0.00 | 0.00 | 0.00 | 31 | 1012.9 |
| 20260503195116 | 85 | 270 | 4.3 | 6.1 | 0.00 | 0.00 | 0.00 | 28 | 1012.9 |
| 20260503194117 | 85 | 293 | 1.7 | 2.6 | 0.00 | 0.00 | 0.00 | 30 | 1013.0 |
| 20260503193116 | 84 | 270 | 3.5 | 5.2 | 0.00 | 0.00 | 0.00 | 31 | 1013.1 |
| 20260503192116 | 84 | 248 | 2.6 | 4.3 | 0.00 | 0.00 | 0.00 | 33 | 1013.1 |
| 20260503191116 | 84 | 270 | 2.6 | 3.5 | 0.00 | 0.00 | 0.00 | 35 | 1013.2 |
| 20260503190117 | 81 | 270 | 2.6 | 4.3 | 0.00 | 0.00 | 0.00 | 36 | 1013.3 |
| 20260503185117 | 80 | 293 | 5.2 | 7.0 | 0.00 | 0.00 | 0.00 | 37 | 1013.4 |
| 20260503184116 | 79 | 315 | 1.7 | 3.5 | 0.00 | 0.00 | 0.00 | 36 | 1013.5 |
| 20260503183116 | 79 | 270 | 2.6 | 3.5 | 0.00 | 0.00 | 0.00 | 37 | 1013.5 |
| 20260503182116 | 78 | 270 | 2.6 | 5.2 | 0.00 | 0.00 | 0.00 | 39 | 1013.6 |
| 20260503181116 | 77 | 293 | 1.7 | 5.2 | 0.00 | 0.00 | 0.00 | 43 | 1013.7 |
| 20260503180116 | 75 | 315 | 2.6 | 5.2 | 0.00 | 0.00 | 0.00 | 44 | 1013.9 |
| 20260503175116 | 74 | 293 | 2.6 | 2.6 | 0.00 | 0.00 | 0.00 | 46 | 1013.9 |
| 20260503174116 | 74 | 293 | 3.5 | 7.0 | 0.00 | 0.00 | 0.00 | 49 | 1014.0 |
| 20260503173136 | 72 | 315 | 1.7 | 2.6 | 0.00 | 0.00 | 0.00 | 51 | 1014.0 |
| 20260503172116 | 71 | 293 | 1.7 | 2.6 | 0.00 | 0.00 | 0.00 | 53 | 1014.0 |
| 20260503171116 | 69 | 0 | 3.5 | 4.3 | 0.00 | 0.00 | 0.00 | 55 | 1014.0 |
| 20260503170116 | 68 | 315 | 1.7 | 3.5 | 0.00 | 0.00 | 0.00 | 57 | 1014.0 |